Weather in Pécs

Hungary     46˚04′27″N   18˚14′04″E
temp.,
°C
wind,
m/s
gust,
m/s
humid.,
%
clouds,
%
prec.,
mm/h
press.,
hPa
HPBL,
m
29 november, sun
sun2901:00−1˚wnw118737 0.0 102321
04:00−1˚nw128810 0.0 102321
07:00−2˚nw11905 0.0 102321
10:00+2˚wnw22720 0.0 1024307
13:00+4˚nw23600 0.0 1023870
16:00+1˚nw22769 0.0 102322
19:00nw22854 0.0 102421
22:00−1˚wnw22860 0.0 102528
30 november, mon
mon3001:00−1˚wnw238712 0.0 102559
04:00−1˚nw239214 0.0 102648
07:00−2˚nw12937 0.0 102721
10:00+2˚nw11770 0.0 1029274
13:00+4˚nnw01687 0.0 1028666
16:00+2˚se017767 0.0 102822
19:00ene118546 0.0 102821
22:00−1˚e22870 0.0 102822
1 december, tue
tue101:00−1˚e22890 0.0 102727
04:00−2˚e22920 0.0 102545
07:00−2˚e23940 0.0 102473
10:00+1˚e35750 0.0 1024361
13:00+3˚e45580 0.0 1022635
16:00e33722 0.0 102173
19:00−2˚ene34791 0.0 102292
22:00−2˚ene368256 0.0 1023147
2 december, wed
wed201:00−2˚ene497851 0.0 1023275
04:00−2˚e4107785 0.0 1022371
07:00−2˚e4107693 0.0 1022402
10:00e586599 0.0 1022514
13:00+2˚e5861100 0.0 1020721
16:00+1˚e2467100 0.0 1019135
19:00e3866100 0.0 1019312
22:00e4866100 0.0 1019325
3 december, thu
thu301:00−1˚e3775100 0.0 1018186
04:00−1˚e3784100 0.0 1016243
07:00e51082100 0.0 1015333
10:00+2˚e6975100 0.0 1015425
13:00+5˚e5968100 0.0 1013525
16:00+4˚e597399 0.0 1011276
19:00+3˚e5108099 0.0 1010435
22:00+3˚ese61379100 0.0 1008467